Regional Weather Roundup
Issued by NWS

Home | Current Version | Previous Version | Graphics & Text | Print | Product List | Glossary On
Versions: 1 2 3 4 5 6 7 8 9 10 11 12 13 14 15 16 17 18 19 20 21 22 23 24 25 26 27 28 29 30 31 32 33 34 35 36 37 38 39 40 41 42 43 44 45 46 47 48 49 50
000
ASUS43 KFSD 220702
RWRSD

WEATHER ROUNDUP FOR SOUTH DAKOTA
NATIONAL WEATHER SERVICE SIOUX FALLS SD
200 AM CDT MON SEP 22 2014

NOTE: "FAIR" INDICATES FEW OR NO CLOUDS BELOW 12,000 FEET WITH NO
SIGNIFICANT WEATHER AND/OR OBSTRUCTIONS TO VISIBILITY.


SDZ001>005-009-010-012>017-220800-
NORTHWEST AND NORTH CENTRAL SOUTH DAKOTA

CITY           SKY/WX    TMP DP  RH WIND       PRES   REMARKS
FAITH            N/A     47  40  76 S16       30.19F
MOBRIDGE       CLEAR     48  47  96 E8        30.19F
$$

SDZ012>016-024>037-041>051-057-063-072>074-220800-
SOUTHWEST AND SOUTH CENTRAL SOUTH DAKOTA

CITY           SKY/WX    TMP DP  RH WIND       PRES   REMARKS
RAPID CTY ARPT MOCLDY    50  38  63 SE7       30.21F
PIERRE         CLEAR     49  41  74 SE6       30.22S
CUSTER         PTCLDY    50  35  56 CALM      30.29F
ELLSWORTH AFB  MOCLDY    56  38  50 SE7       30.20F
PHILIP         PTCLDY    50  40  68 CALM      30.22F
PINE RIDGE     CLEAR     62  36  37 S18G28    30.22F
WINNER         FAIR      48  41  76 S8        30.26S
$$

SDZ004>011-016>023-039-040-220800-
NORTHEAST SOUTH DAKOTA

CITY           SKY/WX    TMP DP  RH WIND       PRES   REMARKS
ABERDEEN       CLEAR     41  38  89 SW3       30.24R
WATERTOWN      CLEAR     46  44  93 S5        30.25S
SISSETON         N/A     45  44  97 S5        30.21F
$$

SDZ017-020-022-023-036>040-048>070-220800-
SOUTHEAST SOUTH DAKOTA

CITY           SKY/WX    TMP DP  RH WIND       PRES   REMARKS
SIOUX FALLS    CLEAR     46  44  93 CALM      30.27R
HURON          CLEAR     50  44  80 S6        30.25S
CHAMBERLAIN    CLEAR     46  43  89 CALM      30.26S
MITCHELL       CLEAR     51  46  83 SW8       30.27S
YANKTON        CLEAR     50  45  81 CALM      30.29R
$$

ABBREVIATIONS USED IN REMARKS
   TC - TEMPERATURE IN CELSIUS
  WCI - WIND CHILL INDEX
   HX - HEAT INDEX
  VSB - VISIBILITY




USA.gov is the U.S. government's official web portal to all federal, state and local government web resources and services.